• în România
  • Lista ţărilor
  • Pe 7 zile
  • Temperatura apei
  • Hartă satelitară
  • Meteo pe hartă
  • Widget-uri
  • user-avatar
    Intrare

    Meteo pe oră la Makarska

    Astăzi, 21 Februarie, Miercuri

    Timp Temperatura Precipitaţii Vânt Presiune Umiditate
    00:00 +4°C° 0,2 mm 4 m/s 752 mmHg 79%
    01:00 +4°C° 0,2 mm 4 m/s 752 mmHg 78%
    02:00 +3°C° 1,1 mm 5 m/s 752 mmHg 79%
    03:00 +3°C° 1,1 mm 5 m/s 752 mmHg 80%
    04:00 +3°C° 1,1 mm 6 m/s 752 mmHg 82%
    05:00 +3°C° 0,4 mm 6 m/s 752 mmHg 81%
    06:00 +3°C° 0,4 mm 6 m/s 751 mmHg 80%
    07:00 +3°C° 0,4 mm 6 m/s 751 mmHg 79%
    08:00 +4°C° 0,2 mm 6 m/s 752 mmHg 78%
    09:00 +4°C° 0,2 mm 6 m/s 752 mmHg 78%
    10:00 +5°C° 0,2 mm 6 m/s 752 mmHg 78%
    11:00 +5°C° 0,5 mm 6 m/s 752 mmHg 79%
    12:00 +5°C° 0,5 mm 6 m/s 752 mmHg 80%
    13:00 +7°C° 0,5 mm 6 m/s 752 mmHg 81%
    14:00 +7°C° 0,6 mm 6 m/s 752 mmHg 80%
    15:00 +7°C° 0,6 mm 6 m/s 751 mmHg 79%
    16:00 +7°C° 0,6 mm 6 m/s 751 mmHg 78%
    17:00 +7°C° 0,6 mm 6 m/s 751 mmHg 78%
    18:00 +5°C° 0,6 mm 6 m/s 751 mmHg 77%
    19:00 +5°C° 0,6 mm 6 m/s 751 mmHg 77%
    20:00 +5°C° 0,3 mm 6 m/s 751 mmHg 77%
    21:00 +5°C° 0,3 mm 6 m/s 751 mmHg 77%
    22:00 +5°C° 0,3 mm 7 m/s 751 mmHg 77%
    23:00 +5°C° 0,4 mm 7 m/s 751 mmHg 77%

    Mâine, 22 Februarie, Joi

    Timp Temperatura Precipitaţii Vânt Presiune Umiditate
    00:00 +5°C° 0,4 mm 7 m/s 751 mmHg 77%
    01:00 +5°C° 0,4 mm 7 m/s 751 mmHg 77%
    02:00 +5°C° 1,5 mm 6 m/s 750 mmHg 80%
    03:00 +4°C° 1,5 mm 6 m/s 750 mmHg 82%
    04:00 +4°C° 1,5 mm 6 m/s 750 mmHg 85%
    05:00 +5°C° 0,9 mm 5 m/s 750 mmHg 85%
    06:00 +5°C° 0,9 mm 5 m/s 751 mmHg 86%
    07:00 +5°C° 0,9 mm 5 m/s 751 mmHg 86%
    08:00 +6°C° 0,3 mm 5 m/s 751 mmHg 86%
    09:00 +6°C° 0,3 mm 5 m/s 752 mmHg 86%
    10:00 +7°C° 0,3 mm 5 m/s 752 mmHg 86%
    11:00 +7°C° 0,3 mm 5 m/s 752 mmHg 86%
    12:00 +8°C° 0,3 mm 5 m/s 752 mmHg 86%
    13:00 +8°C° 0,3 mm 6 m/s 752 mmHg 85%
    14:00 +8°C° 0,7 mm 6 m/s 752 mmHg 86%
    15:00 +8°C° 0,7 mm 6 m/s 752 mmHg 87%
    16:00 +8°C° 0,7 mm 6 m/s 753 mmHg 87%
    17:00 +8°C° 0,9 mm 6 m/s 753 mmHg 87%
    18:00 +8°C° 0,9 mm 6 m/s 753 mmHg 87%
    19:00 +7°C° 0,9 mm 6 m/s 753 mmHg 87%
    20:00 +7°C° 1,1 mm 6 m/s 753 mmHg 87%
    21:00 +6°C° 1,1 mm 7 m/s 753 mmHg 87%
    22:00 +6°C° 1,1 mm 7 m/s 753 mmHg 87%
    23:00 +6°C° 1,8 mm 7 m/s 753 mmHg 87%

    Poimâine, 23 Februarie, Vineri

    Timp Temperatura Precipitaţii Vânt Presiune Umiditate
    00:00 +7°C° 1,8 mm 6 m/s 752 mmHg 87%
    01:00 +7°C° 1,8 mm 6 m/s 752 mmHg 88%
    02:00 +7°C° 3 mm 6 m/s 752 mmHg 89%
    03:00 +7°C° 3 mm 6 m/s 752 mmHg 90%
    04:00 +7°C° 3 mm 6 m/s 751 mmHg 91%
    05:00 +7°C° 3,5 mm 5 m/s 752 mmHg 91%
    06:00 +7°C° 3,5 mm 5 m/s 752 mmHg 92%
    07:00 +7°C° 3,5 mm 4 m/s 752 mmHg 93%
    08:00 +7°C° 2,2 mm 4 m/s 753 mmHg 92%
    09:00 +8°C° 2,2 mm 5 m/s 753 mmHg 91%
    10:00 +8°C° 2,2 mm 5 m/s 753 mmHg 91%
    11:00 +8°C° 2 mm 5 m/s 753 mmHg 91%
    12:00 +8°C° 2 mm 6 m/s 754 mmHg 91%
    13:00 +9°C° 2 mm 6 m/s 754 mmHg 92%
    14:00 +9°C° 1,2 mm 7 m/s 754 mmHg 90%
    15:00 +9°C° 1,2 mm 7 m/s 754 mmHg 89%
    16:00 +9°C° 1,2 mm 8 m/s 753 mmHg 87%
    17:00 +9°C° 0,2 mm 7 m/s 753 mmHg 85%
    18:00 +9°C° 0,2 mm 7 m/s 753 mmHg 83%
    19:00 +9°C° 0,2 mm 7 m/s 753 mmHg 81%
    20:00 +8°C° 0 mm 7 m/s 753 mmHg 80%
    21:00 +8°C° 0 mm 7 m/s 753 mmHg 79%
    22:00 +8°C° 0 mm 7 m/s 753 mmHg 77%
    23:00 +8°C° 0 mm 7 m/s 753 mmHg 77%

    24 Februarie, Sâmbătă

    Timp Temperatura Precipitaţii Vânt Presiune Umiditate
    00:00 +8°C° 0 mm 7 m/s 753 mmHg 77%
    01:00 +8°C° 0 mm 7 m/s 753 mmHg 77%
    02:00 +8°C° 0 mm 7 m/s 753 mmHg 77%
    03:00 +8°C° 0 mm 6 m/s 753 mmHg 77%
    04:00 +8°C° 0 mm 6 m/s 753 mmHg 77%
    05:00 +8°C° 0,2 mm 6 m/s 754 mmHg 78%
    06:00 +8°C° 0,2 mm 6 m/s 754 mmHg 78%
    07:00 +8°C° 0,2 mm 6 m/s 755 mmHg 79%
    08:00 +8°C° 0,5 mm 6 m/s 755 mmHg 79%
    09:00 +8°C° 0,5 mm 6 m/s 756 mmHg 79%
    10:00 +8°C° 0,5 mm 5 m/s 756 mmHg 79%
    11:00 +9°C° 0,2 mm 5 m/s 756 mmHg 79%
    12:00 +9°C° 0,2 mm 5 m/s 756 mmHg 79%
    13:00 +9°C° 0,2 mm 5 m/s 756 mmHg 78%
    14:00 +8°C° 0,2 mm 5 m/s 756 mmHg 78%
    15:00 +8°C° 0,2 mm 5 m/s 756 mmHg 78%
    16:00 +8°C° 0,2 mm 4 m/s 756 mmHg 78%
    17:00 +7°C° 0,2 mm 4 m/s 757 mmHg 78%
    18:00 +7°C° 0,2 mm 5 m/s 757 mmHg 78%
    19:00 +6°C° 0,2 mm 5 m/s 757 mmHg 78%
    20:00 +5°C° 0,2 mm 5 m/s 757 mmHg 78%
    21:00 +5°C° 0,2 mm 5 m/s 758 mmHg 78%
    22:00 +3°C° 0,2 mm 5 m/s 758 mmHg 78%
    23:00 +3°C° 0,2 mm 5 m/s 758 mmHg 78%

    25 Februarie, Duminică

    Timp Temperatura Precipitaţii Vânt Presiune Umiditate
    00:00 +2°C° 0,2 mm 5 m/s 758 mmHg 79%
    01:00 +2°C° 0,2 mm 5 m/s 757 mmHg 79%
    02:00 +1°C° 0,1 mm 5 m/s 757 mmHg 79%
    03:00 +1°C° 0,1 mm 5 m/s 757 mmHg 80%
    04:00 +1°C° 0,1 mm 5 m/s 757 mmHg 80%
    05:00 0°C° 0,2 mm 5 m/s 757 mmHg 81%
    06:00 0°C° 0,2 mm 5 m/s 757 mmHg 81%
    07:00 -1°C° 0,2 mm 5 m/s 757 mmHg 82%
    08:00 -2°C° 0,6 mm 6 m/s 757 mmHg 83%
    09:00 -2°C° 0,6 mm 6 m/s 757 mmHg 85%
    10:00 -3°C° 0,6 mm 6 m/s 758 mmHg 86%
    11:00 -3°C° 0,8 mm 6 m/s 757 mmHg 86%
    12:00 -3°C° 0,8 mm 6 m/s 757 mmHg 85%
    13:00 -3°C° 0,8 mm 6 m/s 757 mmHg 85%
    14:00 -3°C° 0,5 mm 6 m/s 757 mmHg 83%
    15:00 -3°C° 0,5 mm 6 m/s 757 mmHg 81%
    16:00 -3°C° 0,5 mm 6 m/s 757 mmHg 80%
    17:00 -4°C° 0,2 mm 6 m/s 758 mmHg 79%
    18:00 -4°C° 0,2 mm 6 m/s 758 mmHg 78%
    19:00 -5°C° 0,2 mm 6 m/s 758 mmHg 77%
    20:00 -5°C° 0,1 mm 6 m/s 758 mmHg 77%
    21:00 -5°C° 0,1 mm 6 m/s 758 mmHg 76%
    22:00 -6°C° 0,1 mm 6 m/s 759 mmHg 75%
    23:00 -6°C° 0,1 mm 6 m/s 758 mmHg 75%

    26 Februarie, Luni

    Timp Temperatura Precipitaţii Vânt Presiune Umiditate
    00:00 -6°C° 0,1 mm 6 m/s 758 mmHg 74%
    01:00 -8°C° 0,1 mm 6 m/s 758 mmHg 73%
    02:00 -8°C° 0 mm 6 m/s 758 mmHg 72%
    03:00 -8°C° 0 mm 6 m/s 758 mmHg 71%
    04:00 -8°C° 0 mm 6 m/s 757 mmHg 70%
    05:00 -8°C° 0 mm 6 m/s 757 mmHg 70%
    06:00 -8°C° 0 mm 6 m/s 757 mmHg 70%
    07:00 -9°C° 0 mm 6 m/s 757 mmHg 69%
    08:00 -8°C° 0 mm 6 m/s 757 mmHg 68%
    09:00 -8°C° 0 mm 6 m/s 757 mmHg 67%
    10:00 -8°C° 0 mm 6 m/s 757 mmHg 66%
    11:00 -6°C° 0 mm 6 m/s 757 mmHg 65%
    12:00 -6°C° 0 mm 6 m/s 757 mmHg 64%
    13:00 -5°C° 0 mm 6 m/s 757 mmHg 63%
    14:00 -5°C° 0 mm 6 m/s 757 mmHg 64%
    15:00 -5°C° 0 mm 6 m/s 757 mmHg 64%
    16:00 -5°C° 0 mm 6 m/s 757 mmHg 65%
    17:00 -7°C° 0 mm 7 m/s 757 mmHg 66%
    18:00 -8°C° 0 mm 7 m/s 757 mmHg 68%
    19:00 -8°C° 0 mm 7 m/s 757 mmHg 69%
    20:00 -8°C° 0 mm 7 m/s 757 mmHg 69%
    21:00 -9°C° 0 mm 7 m/s 757 mmHg 68%
    22:00 -9°C° 0 mm 7 m/s 757 mmHg 68%
    23:00 -9°C° 0 mm 7 m/s 757 mmHg 68%
    Arată mai mult